Flag for Canada Weather past 2 weeks in Clarington, Ontario, Canada

Now
34 °F

Overcast.


Feels Like: 25 °F
Forecast: 30 / 44 °F
Wind: 12 mph from West

Location: Peterborough Airport

Current Time: Dec 28, 2014 at 8:43:26 AM

Latest Report: Dec 28, 2014 at 8:00 AM


Visibility: 9 mi

Pressure: 29.93 "Hg

Humidity: 75%

Dew point: 27 °F

Location of ClaringtonLocation

Historic Weather in Clarington — Graph

°F

Clarington temperature yesterday

Maximum temperature yesterday: 48 °F (at 8:00 PM)
Minimum temperature yesterday: 28 °F (at 12:00 AM)
Average temperature yesterday: 40 °F

Past Weeks' High & Low Weather Summary

 TemperatureHumidityPressure
High50 °F (Dec 24, 11:00 PM)100% (Dec 13, 7:00 AM)30.35 "Hg (Dec 13, 7:00 AM)
Low12 °F (Dec 20, 7:00 AM)51% (Dec 20, 3:00 PM)29.18 "Hg (Dec 25, 12:50 AM)
Average33 °F91%29.99 "Hg
* Reported Dec 13 7:00 AM — Dec 28 7:00 AM, Clarington, Weather by CustomWeather, © 2014

Note: Actual official high and low records may vary slightly from our data, if they occured in-between our weather recording intervals... More about our weather records

Advertising

Clarington weather history for previous 24 hours

 ConditionsComfort  
Time TempWeatherWind HumidityBarometerVisibility
7:00 AM
Dec 28
34 °FOvercast.23 mph75%29.90 "Hg9 mi
6:00 AM36 °FOvercast.17 mph81%29.88 "Hg9 mi
5:00 AM36 °FMostly cloudy.17 mph81%29.86 "Hg9 mi
4:58 AM36 °FMostly cloudy.16 mph81%29.86 "Hg9 mi
4:00 AM37 °FMostly cloudy.14 mph87%29.84 "Hg9 mi
3:53 AM37 °FOvercast.13 mph87%29.84 "Hg9 mi
3:00 AM41 °FMostly cloudy.16 mph81%29.84 "Hg9 mi
2:00 AM41 °FLight rain. Mostly cloudy.8 mph87%29.81 "Hg9 mi
1:00 AM45 °FMostly cloudy.15 mph81%29.80 "Hg9 mi
12:57 AM45 °FMostly cloudy.18 mph81%29.80 "Hg9 mi
12:00 AM46 °FLight rain. Mostly cloudy.12 mph87%29.81 "Hg9 mi
11:00 PM
Dec 27
46 °FOvercast.9 mph87%29.80 "Hg9 mi
10:00 PM46 °FLight rain. Overcast.9 mph87%29.84 "Hg9 mi
9:00 PM46 °FOvercast.13 mph87%29.85 "Hg9 mi
8:53 PM46 °FOvercast.16 mph82%29.86 "Hg9 mi
8:00 PM48 °FMostly cloudy.17 mph71%29.86 "Hg9 mi
7:00 PM46 °FMostly cloudy.12 mph76%29.86 "Hg9 mi
6:00 PM45 °FOvercast.10 mph81%29.90 "Hg9 mi
5:00 PM43 °FMostly cloudy.5 mph87%29.92 "Hg9 mi
4:00 PM45 °FMore clouds than sun.7 mph81%29.93 "Hg9 mi
3:55 PM45 °FCloudy.7 mph81%29.94 "Hg9 mi
3:00 PM43 °FMostly cloudy.7 mph93%29.94 "Hg9 mi
2:00 PM43 °FLight rain. Overcast.8 mph87%29.99 "Hg9 mi
1:00 PM45 °FMostly cloudy.8 mph81%30.03 "Hg9 mi
12:00 PM43 °FOvercast.10 mph87%30.07 "Hg9 mi
11:00 AM41 °FMostly cloudy.8 mph87%30.11 "Hg9 mi
10:00 AM39 °FFog.6 mph93%30.13 "Hg5 mi
9:00 AM37 °FFog.7 mph100%30.13 "Hg5 mi
8:00 AM36 °FFog.3 mph100%30.14 "Hg4 mi
Weather by CustomWeather, © 2014

See weather overviewHow to use our weather pages